| time (UTC) | temp F | wind direction | speed MPH | gust MPH | rain 1hr in | rain 24hr in | rain mn in | humidity % | barometer mb |
| 20260508124532 | 59 | 215 | 0.0 | 1.0 | 0.00 | 0.00 | 0.00 | 1 | 1014.5 |
| 20260508123029 | 59 | 215 | 0.0 | 0.0 | 0.00 | 0.00 | 0.00 | 1 | 1014.4 |
| 20260508121523 | 59 | 215 | 1.0 | 3.0 | 0.00 | 0.00 | 0.00 | 1 | 1014.4 |
| 20260508120031 | 59 | 187 | 1.0 | 4.0 | 0.00 | 0.00 | 0.00 | 1 | 1014.3 |
| 20260508114514 | 59 | 184 | 0.0 | 3.0 | 0.00 | 0.00 | 0.00 | 1 | 1014.4 |
| 20260508113013 | 59 | 185 | 0.0 | 4.0 | 0.00 | 0.00 | 0.00 | 1 | 1014.3 |
| 20260508111507 | 59 | 181 | 1.0 | 4.0 | 0.00 | 0.00 | 0.00 | 1 | 1014.3 |
| 20260508110003 | 59 | 184 | 1.0 | 3.0 | 0.00 | 0.00 | 0.00 | 1 | 1014.4 |
| 20260508104601 | 59 | 205 | 1.0 | 4.0 | 0.00 | 0.00 | 0.00 | 1 | 1014.5 |
| 20260508103053 | 59 | 217 | 2.0 | 4.0 | 0.00 | 0.00 | 0.00 | 1 | 1014.8 |
| 20260508101553 | 59 | 234 | 1.0 | 7.0 | 0.00 | 0.00 | 0.00 | 1 | 1014.6 |
| 20260508100045 | 59 | 288 | 0.0 | 4.0 | 0.00 | 0.00 | 0.00 | 1 | 1014.7 |
| 20260508094545 | 59 | 250 | 2.0 | 4.0 | 0.00 | 0.00 | 0.00 | 1 | 1014.6 |
| 20260508093036 | 59 | 250 | 2.0 | 4.0 | 0.00 | 0.00 | 0.00 | 1 | 1014.5 |
| 20260508091538 | 59 | 281 | 0.0 | 2.0 | 0.00 | 0.00 | 0.00 | 1 | 1014.6 |
| 20260508090028 | 59 | 281 | 1.0 | 2.0 | 0.00 | 0.00 | 0.00 | 1 | 1014.7 |
| 20260508084523 | 59 | 208 | 0.0 | 2.0 | 0.00 | 0.00 | 0.00 | 1 | 1014.7 |
| 20260508083021 | 59 | 209 | 0.0 | 3.0 | 0.00 | 0.00 | 0.00 | 1 | 1014.8 |
| 20260508081514 | 59 | 211 | 1.0 | 3.0 | 0.00 | 0.00 | 0.00 | 1 | 1015.0 |
| 20260508080009 | 59 | 210 | 1.0 | 3.0 | 0.00 | 0.00 | 0.00 | 1 | 1015.3 |
| 20260508074507 | 59 | 211 | 0.0 | 2.0 | 0.00 | 0.00 | 0.00 | 1 | 1015.3 |
| 20260508073100 | 59 | 211 | 0.0 | 3.0 | 0.00 | 0.00 | 0.00 | 1 | 1015.3 |
| 20260508071557 | 59 | 210 | 0.0 | 4.0 | 0.00 | 0.00 | 0.00 | 1 | 1015.6 |
| 20260508070054 | 59 | 205 | 0.0 | 5.0 | 0.00 | 0.00 | 0.00 | 1 | 1015.7 |
| 20260508064552 | 59 | 215 | 0.0 | 3.0 | 0.00 | 0.00 | 0.00 | 1 | 1015.7 |
| 20260508063050 | 59 | 292 | 0.0 | 2.0 | 0.00 | 0.00 | 0.00 | 1 | 1015.7 |
| 20260508061551 | 58 | 292 | 0.0 | 2.0 | 0.00 | 0.00 | 0.00 | 1 | 1015.7 |
| 20260508060049 | 58 | 292 | 0.0 | 3.0 | 0.00 | 0.00 | 0.00 | 1 | 1015.6 |
| 20260508054545 | 58 | 273 | 1.0 | 3.0 | 0.00 | 0.00 | 0.00 | 1 | 1015.7 |
| 20260508053038 | 58 | 273 | 0.0 | 3.0 | 0.00 | 0.00 | 0.00 | 1 | 1015.7 |
| 20260508051537 | 58 | 273 | 0.0 | 4.0 | 0.00 | 0.00 | 0.00 | 1 | 1015.6 |
| 20260508050034 | 57 | 273 | 1.0 | 3.0 | 0.00 | 0.00 | 0.00 | 1 | 1015.6 |
| 20260508044526 | 57 | 273 | 2.0 | 5.0 | 0.00 | 0.00 | 0.00 | 1 | 1015.5 |
| 20260508043022 | 57 | 269 | 2.0 | 6.0 | 0.00 | 0.00 | 0.00 | 1 | 1015.3 |
| 20260508041517 | 58 | 243 | 2.0 | 7.0 | 0.00 | 0.00 | 0.00 | 1 | 1015.1 |
| 20260508040012 | 58 | 264 | 0.0 | 6.0 | 0.00 | 0.00 | 0.00 | 1 | 1015.0 |
| 20260508034507 | 59 | 259 | 1.0 | 3.0 | 0.00 | 0.00 | 0.00 | 1 | 1014.8 |
| 20260508033002 | 59 | 195 | 0.0 | 4.0 | 0.00 | 0.00 | 0.00 | 1 | 1014.8 |
| 20260508031600 | 60 | 246 | 0.0 | 8.0 | 0.00 | 0.00 | 0.00 | 1 | 1014.4 |
| 20260508030054 | 62 | 254 | 0.0 | 6.0 | 0.00 | 0.00 | 0.00 | 1 | 1014.1 |
| 20260508024557 | 64 | 206 | 1.0 | 7.0 | 0.00 | 0.00 | 0.00 | 1 | 1013.9 |
| 20260508023045 | 65 | 232 | 3.0 | 8.0 | 0.00 | 0.00 | 0.00 | 1 | 1013.6 |
| 20260508021541 | 67 | 238 | 4.0 | 9.0 | 0.00 | 0.00 | 0.00 | 1 | 1013.5 |
| 20260508020039 | 68 | 259 | 4.0 | 10.0 | 0.00 | 0.00 | 0.00 | 1 | 1013.4 |
| 20260508014533 | 70 | 246 | 2.0 | 8.0 | 0.00 | 0.00 | 0.00 | 1 | 1013.2 |
| 20260508013027 | 72 | 218 | 3.0 | 8.0 | 0.00 | 0.00 | 0.00 | 1 | 1013.2 |
| 20260508011524 | 73 | 294 | 5.0 | 8.0 | 0.00 | 0.00 | 0.00 | 1 | 1013.1 |
| 20260508010020 | 73 | 211 | 3.0 | 9.0 | 0.00 | 0.00 | 0.00 | 1 | 1013.3 |
| 20260508004515 | 74 | 207 | 4.0 | 10.0 | 0.00 | 0.00 | 0.00 | 1 | 1013.3 |
| 20260508003010 | 74 | 249 | 5.0 | 10.0 | 0.00 | 0.00 | 0.00 | 1 | 1013.3 |
| 20260508001506 | 74 | 211 | 4.0 | 9.0 | 0.00 | 0.00 | 0.00 | 1 | 1013.2 |
| 20260508000001 | 74 | 231 | 5.0 | 10.0 | 0.00 | 0.00 | 0.00 | 1 | 1013.2 |
| 20260507234559 | 74 | 219 | 6.0 | 11.0 | 0.00 | 0.00 | 0.00 | 1 | 1013.2 |
| 20260507233053 | 74 | 257 | 4.0 | 14.0 | 0.00 | 0.00 | 0.00 | 1 | 1013.0 |
| 20260507231552 | 74 | 216 | 4.0 | 11.0 | 0.00 | 0.00 | 0.00 | 1 | 1013.0 |
| 20260507230047 | 75 | 307 | 5.0 | 11.0 | 0.00 | 0.00 | 0.00 | 1 | 1013.1 |
| 20260507224541 | 75 | 193 | 3.0 | 10.0 | 0.00 | 0.00 | 0.00 | 1 | 1013.2 |
| 20260507223036 | 75 | 241 | 5.0 | 12.0 | 0.00 | 0.00 | 0.00 | 1 | 1013.3 |
| 20260507221531 | 75 | 269 | 4.0 | 13.0 | 0.00 | 0.00 | 0.00 | 1 | 1013.4 |
| 20260507220029 | 74 | 190 | 4.0 | 9.0 | 0.00 | 0.00 | 0.00 | 1 | 1013.5 |
| 20260507214525 | 75 | 260 | 8.0 | 13.0 | 0.00 | 0.00 | 0.00 | 1 | 1013.7 |
| 20260507213019 | 74 | 192 | 5.0 | 13.0 | 0.00 | 0.00 | 0.00 | 1 | 1013.7 |
| 20260507211514 | 75 | 209 | 8.0 | 16.0 | 0.00 | 0.00 | 0.00 | 1 | 1013.8 |
| 20260507210008 | 75 | 229 | 6.0 | 15.0 | 0.00 | 0.00 | 0.00 | 1 | 1013.9 |
| 20260507204505 | 75 | 211 | 6.0 | 14.0 | 0.00 | 0.00 | 0.00 | 1 | 1014.0 |
| 20260507203100 | 75 | 217 | 6.0 | 16.0 | 0.00 | 0.00 | 0.00 | 1 | 1013.9 |
| 20260507201606 | 75 | 209 | 8.0 | 13.0 | 0.00 | 0.00 | 0.00 | 1 | 1014.1 |
| 20260507200056 | 75 | 169 | 8.0 | 15.0 | 0.00 | 0.00 | 0.00 | 1 | 1013.9 |
| 20260507194547 | 75 | 219 | 6.0 | 13.0 | 0.00 | 0.00 | 0.00 | 1 | 1014.0 |
| 20260507193050 | 75 | 207 | 8.0 | 14.0 | 0.00 | 0.00 | 0.00 | 1 | 1014.1 |
| 20260507191538 | 75 | 220 | 10.0 | 15.0 | 0.00 | 0.00 | 0.00 | 1 | 1014.1 |
| 20260507190035 | 75 | 169 | 4.0 | 10.0 | 0.00 | 0.00 | 0.00 | 1 | 1014.3 |
| 20260507184529 | 74 | 293 | 5.0 | 16.0 | 0.00 | 0.00 | 0.00 | 1 | 1014.5 |
| 20260507183026 | 73 | 203 | 7.0 | 12.0 | 0.00 | 0.00 | 0.00 | 1 | 1014.5 |
| 20260507181520 | 72 | 160 | 3.0 | 7.0 | 0.00 | 0.00 | 0.00 | 1 | 1014.9 |
| 20260507180016 | 70 | 215 | 3.0 | 10.0 | 0.00 | 0.00 | 0.00 | 1 | 1014.9 |
| 20260507174515 | 69 | 175 | 2.0 | 8.0 | 0.00 | 0.00 | 0.00 | 1 | 1014.9 |
| 20260507173018 | 68 | 179 | 4.0 | 8.0 | 0.00 | 0.00 | 0.00 | 1 | 1015.0 |
| 20260507171503 | 65 | 205 | 2.0 | 6.0 | 0.00 | 0.00 | 0.00 | 1 | 1015.2 |
| 20260507170059 | 62 | 250 | 3.0 | 9.0 | 0.00 | 0.00 | 0.00 | 1 | 1015.4 |
| 20260507164555 | 61 | 181 | 0.0 | 7.0 | 0.00 | 0.00 | 0.00 | 1 | 1015.7 |
| 20260507163057 | 62 | 184 | 2.0 | 5.0 | 0.00 | 0.00 | 0.00 | 1 | 1015.8 |
| 20260507161550 | 62 | 211 | 1.0 | 8.0 | 0.00 | 0.00 | 0.00 | 1 | 1015.9 |
| 20260507160047 | 61 | 173 | 1.0 | 7.0 | 0.00 | 0.00 | 0.00 | 1 | 1015.8 |
| 20260507154539 | 60 | 343 | 0.0 | 7.0 | 0.00 | 0.00 | 0.00 | 1 | 1016.0 |
| 20260507153041 | 59 | 307 | 2.0 | 5.0 | 0.00 | 0.00 | 0.00 | 1 | 1015.9 |
| 20260507151531 | 58 | 209 | 2.0 | 6.0 | 0.00 | 0.00 | 0.00 | 1 | 1015.8 |
| 20260507150027 | 57 | 221 | 0.0 | 3.0 | 0.00 | 0.00 | 0.00 | 1 | 1015.8 |
| 20260507144524 | 55 | 246 | 2.0 | 4.0 | 0.00 | 0.00 | 0.00 | 1 | 1015.8 |
| 20260507143017 | 54 | 124 | 0.0 | 2.0 | 0.00 | 0.00 | 0.00 | 1 | 1015.6 |
| 20260507141513 | 53 | 53 | 0.0 | 2.0 | 0.00 | 0.00 | 0.00 | 1 | 1015.6 |
| 20260507140008 | 52 | 261 | 1.0 | 4.0 | 0.00 | 0.00 | 0.00 | 1 | 1015.4 |
| 20260507134504 | 51 | 322 | 1.0 | 4.0 | 0.00 | 0.00 | 0.00 | 1 | 1015.4 |
| 20260507133100 | 50 | 326 | 3.0 | 4.0 | 0.00 | 0.00 | 0.00 | 1 | 1015.4 |
| 20260507131555 | 50 | 315 | 2.0 | 4.0 | 0.00 | 0.00 | 0.00 | 1 | 1015.5 |
| 20260507130058 | 51 | 334 | 1.0 | 2.0 | 0.00 | 0.00 | 0.00 | 1 | 1015.3 |